Current weather by "City, St" or "zip code"  
 

Current Conditions: Fort Lauderdale, Fort Lauderdale Executive Airport, FL

Overcast


81.0 F

Last Updated on Oct 31 2020, 4:53 am EDT
Humidity: 82%
Wind Speed: E 6.9 mph
Barometer 29.99 in
Dewpoint: 75.0 F
Visibility: 10.00 mi
Precip: Trace
Heat Index: 87 F
Wind Chill: NA
Current conditions at:

Fort Lauderdale, Fort Lauderdale Executive Airport, FL (KFXE)

Lat: 26.2 Lon: 80.18333

Local Radar Image active severe weather and emergency alerts image image weather storm and storm spotter reports image weather observation monitoring service image
Local
Radar
Active
Alerts
Storm Reports Obs
Monitoring

Sign-up For Email & Text Message Weather Alert Notification Services



Advertise Here

Observation History for Fort Lauderdale, Fort Lauderdale Executive Airport, FL


Time Wind
(mph)
Vis
(mi)
Weather Precip (in) Temperature (F) Relative
Humidity
Wind
Chill
(F)
Heat
Index
(F)
Pressure
Air Dwpt altimeter
(in)
sea level
(mb)
Rmks
4:53 am EDT E 6.9 10.00 Overcast Trace 81.0 75.0 82% NA 87 29.99 1015.7
3:53 am EDT E 9.2 10.00 Light Rain Trace 80.0 75.0 85% NA 85 29.99 1015.7
2:53 am EDT NE 6.9 10.00 Partly Cloudy -- 80.0 73.9 82% NA 84 29.99 1015.8
1:53 am EDT NE 9.2 10.00 Mostly Cloudy -- 81.0 75.0 82% NA 87 30.01 1016.3
12:53 am EDT NE 4.6 10.00 Mostly Cloudy -- 80.0 75.0 85% NA 85 30.00 1016.2
11:53 pm EDT NE 8.1 10.00 Mostly Cloudy -- 81.0 73.9 79% NA 86 30.01 1016.4
10:53 pm EDT NE 6.9 10.00 Mostly Cloudy -- 80.0 73.9 82% NA 84 30.01 1016.4
9:53 pm EDT NE 5.8 10.00 Overcast -- 80.0 73.9 82% NA 84 30.00 1016.1
8:53 pm EDT N 5.8 10.00 Partly Cloudy -- 80.0 73.9 82% NA 84 29.99 1015.8
7:53 pm EDT N 9.2 10.00 Fair -- 80.0 75.0 85% NA 85 29.97 1015.0
6:53 pm EDT NE 9.2 10.00 Fair -- 80.0 73.9 82% NA 84 29.95 1014.5
5:53 pm EDT NE 12.7 G 20.7 10.00 Light Rain Trace 82.0 73.9 77% NA 88 29.93 1013.9
4:53 pm EDT SE 5.8 10.00 Mostly Cloudy -- 86.0 73.0 65% NA 93 29.92 1013.4
3:53 pm EDT S 4.6 10.00 Partly Cloudy -- 86.0 73.9 67% NA 94 29.92 1013.2
2:53 pm EDT SE 8.1 10.00 Partly Cloudy -- 85.0 75.0 72% NA 94 29.92 1013.3
1:53 pm EDT SE 9.2 10.00 Mostly Cloudy -- 85.0 75.0 72% NA 94 29.93 1013.7
12:53 pm EDT W 5.8 10.00 Mostly Cloudy -- 86.0 73.9 67% NA 94 29.94 1014.1
11:53 am EDT 3.5 10.00 Mostly Cloudy -- 88.0 73.9 63% NA 97 29.95 1014.5
10:53 am EDT 3.5 10.00 Partly Cloudy -- 86.0 75.0 70% NA 95 29.96 1014.6
9:53 am EDT 4.6 10.00 Partly Cloudy -- 84.0 77.0 80% NA 94 29.96 1014.8
8:53 am EDT SW 4.6 10.00 Fair -- 81.0 78.1 91% NA 89 29.95 1014.5
7:53 am EDT N 0.0 10.00 Partly Cloudy -- 77.0 75.9 96% NA NA 29.93 1013.9
6:53 am EDT N 0.0 10.00 Fair -- 77.0 75.9 96% NA NA 29.93 1013.6

Regional Weather Observation


Pompano Beach, Pompano Beach Airpark, FL (KPMP)

Light Rain
80.0 F

Fort Lauderdale/Hollywood International Airport, FL (KFLL)

Mostly Cloudy
78.0 F

Hollywood, North Perry Airport, FL (KHWO)

Overcast
77.0 F

West Palm Beach - Palm Beach International Airport, FL (KPBI)

Partly Cloudy
81.0 F

Miami, Opa Locka Airport, FL (KOPF)

Mostly Cloudy
75.0 F

Miami, Miami International Airport, FL (KMIA)

Mostly Cloudy
77.0 F